[Date Prev][Date Next][Thread Prev][Thread Next] - [Date Index][Thread Index][Author Index]

2 LIne ISS Keps 3-3



ISS
1 25544U 98067A   03062.13359954  .00027932  00000-0  35602-3 0  7439
2 25544  51.6349 192.9053 0011813 269.0400  83.5534 15.59013513244454


----
Via the sarex mailing list at AMSAT.ORG courtesy of AMSAT-NA.
To unsubscribe, send "unsubscribe sarex" to Majordomo@amsat.org



AMSAT Top AMSAT Home